Temperature
19 19 19 18 18 18 18 18 18 18 18 18 18 18 18 18 18 18 18 18 18 18 18 18 18 18 18 18 18 17 17 17 17 17 17 17 17 17 16 16 16 16 16
18 18 19 18 18 18 18 18 18 18 18 18 18 18 18 18 18 18 18 18 18 18 18 18 18 18 18 18 18 17 17 17 17 17 17 17 17 17 17 16 16 16 16
18 18 18 18 18 18 18 18 18 18 18 18 18 18 18 18 18 18 18 18 18 18 18 18 18 18 18 18 18 17 17 17 17 17 17 17 17 17 17 17 16 16 16
18 18 18 18 18 18 18 18 18 18 18 18 18 18 18 18 18 18 18 18 18 18 18 18 18 18 18 18 18 18 17 17 17 17 17 17 17 17 17 17 16 16 16
18 18 18 18 18 18 18 18 18 18 18 18 18 18 18 18 18 18 18 18 18 18 18 18 18 18 18 18 18 17 17 17 17 17 17 17 17 17 17 17 17 16 16
18 18 18 18 18 18 18 18 18 18 18 18 18 18 18 18 18 18 18 18 18 18 18 18 18 18 18 18 18 17 17 17 17 17 17 17 17 17 17 17 16 16 16
18 18 18 18 18 18 18 18 17 18 18 18 18 18 18 18 18 18 18 18 18 18 18 18 18 18 18 18 18 18 17 17 17 17 17 17 17 17 17 16 16 16 16
18 18 18 18 18 18 18 17 17 17 18 17 17 17 17 18 18 18 18 18 18 18 18 18 18 18 18 18 18 18 17 17 17 17 17 17 17 17 17 16 16 16 16
18 18 18 18 17 17 17 17 17 17 17 17 17 17 17 17 17 18 18 18 18 18 18 18 18 18 17 17 18 17 17 17 17 17 17 17 17 17 17 17 16 16 16
18 18 18 18 17 17 17 17 17 17 17 17 17 17 17 17 16 17 17 18 18 18 18 18 18 17 17 17 17 17 17 17 17 17 17 17 17 17 17 17 17 16 16
18 18 18 18 17 17 17 17 17 17 17 17 17 17 17 17 17 16 16 17 17 18 17 17 17 17 17 17 17 17 17 17 17 17 17 17 17 17 17 17 17 16 16
18 18 18 17 17 17 17 17 17 17 17 17 17 17 17 16 16 16 16 16 17 17 17 17 17 17 17 17 17 17 17 17 17 17 17 17 17 17 17 17 17 17 16
18 18 18 17 17 17 17 17 17 17 17 17 17 17 17 17 16 16 16 16 16 17 17 17 17 17 17 17 17 17 17 17 17 17 17 17 17 17 17 17 17 16 16
18 18 17 17 17 17 17 17 17 17 17 17 17 17 17 17 17 16 16 16 16 16 17 17 17 17 17 17 17 17 17 17 17 17 17 17 17 17 17 17 16 16 16
18 17 17 17 17 17 17 17 17 17 17 17 17 17 17 16 16 16 16 16 16 16 16 17 17 17 17 17 17 16 16 16 16 17 17 17 17 17 17 16 16 16 16
17 17 17 17 17 17 17 17 17 17 17 17 16 16 16 16 16 16 16 16 16 16 15 16 16 16 16 16 16 16 16 16 16 16 16 16 16 16 16 16 16 16 16
17 17 17 17 17 17 17 17 17 16 16 16 16 16 16 16 16 16 16 16 16 16 16 16 16 16 16 16 16 16 16 16 16 16 16 16 16 16 16 16 16 16 15
17 17 17 17 17 17 17 16 16 16 16 16 16 16 16 16 16 16 16 16 16 15 15 15 15 16 16 16 15 15 15 15 16 16 16 16 15 15 15 15 15 15 15
17 17 17 16 16 16 16 16 16 16 16 16 16 16 16 16 16 16 16 15 15 15 15 15 15 15 15 15 15 15 15 15 15 15 15 15 15 15 15 15 15 15 15
17 17 16 16 16 16 16 16 16 16 16 15 15 15 15 15 15 15 15 15 15 15 15 15 15 15 15 15 15 15 15 15 15 15 15 15 15 15 15 15 15 14 14
16 16 16 16 16 16 16 16 16 15 15 15 15 15 15 15 15 15 15 15 15 14 14 14 14 14 14 14 14 14 14 14 14 14 14 14 14 14 14 14 14 14 14
16 16 16 16 16 16 15 15 15 15 15 15 15 15 15 15 14 14 14 14 14 14 14 14 14 14 14 14 14 13 14 14 13 14 14 14 14 14 14 14 14 14 14
16 16 16 16 16 15 15 15 15 15 15 15 15 15 14 14 14 14 14 14 14 14 14 13 13 14 14 13 13 13 13 13 13 13 13 13 13 13 14 14 13 13 13
15 15 15 15 15 15 15 15 15 14 14 14 14 14 14 14 14 14 14 14 14 14 13 13 13 13 13 13 13 13 13 13 13 13 13 12 13 13 13 13 13 13 13
15 15 15 15 15 15 15 14 14 14 14 14 14 14 14 14 14 13 13 13 13 13 13 13 13 13 13 13 13 13 12 12 12 12 12 12 12 13 13 13 13 13 13
15 15 15 15 15 14 14 14 14 14 14 14 14 14 14 13 13 13 13 13 13 13 13 13 13 13 13 13 12 12 12 12 12 12 12 12 12 12 12 12 13 13 13
Wind_Speed
1 1 1 2 2 2 2 2 2 2 2 2 3 3 3 3 4 4 6 8 9 10 11 12 11 11 11 11 11 12 11 11 11 12 12 11 11 11 10 10 10 10 11
2 2 1 2 2 3 3 3 3 2 2 2 2 3 3 4 4 5 5 7 8 9 10 11 11 12 12 11 11 11 11 11 12 12 12 12 12 12 11 11 10 10 10
3 2 2 2 2 2 2 1 2 2 1 1 2 2 3 3 3 4 5 5 7 8 10 11 12 12 12 11 11 11 11 11 11 11 11 11 12 12 11 11 11 11 11
5 3 2 2 2 1 1 1 1 1 1 1 1 2 2 2 3 4 4 5 6 6 8 10 10 11 11 11 11 11 10 10 10 10 10 11 11 11 11 11 11 11 11
5 4 2 2 1 1 1 1 1 1 1 1 1 1 1 2 3 3 3 4 5 6 6 8 9 10 11 11 11 11 11 10 10 10 10 10 11 11 12 12 12 12 12
5 4 2 2 2 1 1 1 1 0 0 1 1 2 2 2 2 3 3 3 4 5 5 6 7 7 10 11 11 11 11 10 11 11 10 11 11 11 12 12 12 12 12
5 4 3 2 2 2 2 2 1 1 0 1 1 2 2 1 1 2 2 2 3 3 4 5 6 6 7 9 10 11 11 12 12 12 12 12 12 12 12 12 12 12 12
5 5 4 3 2 2 2 2 2 1 1 1 1 1 2 3 2 1 1 2 3 2 3 5 6 6 6 6 7 10 11 11 11 11 12 12 13 13 13 13 13 13 13
4 4 4 3 3 3 3 3 3 3 2 1 1 2 1 2 2 2 2 2 2 3 4 5 6 6 6 6 7 8 10 11 11 12 12 12 13 13 13 13 12 12 12
1 2 3 3 3 3 4 4 3 3 3 2 1 1 2 2 1 3 2 2 3 4 4 4 5 6 7 7 8 9 10 10 11 11 11 11 11 11 12 12 12 12 11
1 0 1 2 3 3 4 4 3 4 3 3 2 2 1 1 2 2 4 4 3 4 4 5 5 5 7 7 8 9 10 10 10 10 10 9 10 10 10 10 10 10 10
0 0 0 1 2 3 3 4 4 4 4 4 3 3 2 2 2 3 4 5 5 4 4 4 5 5 6 7 9 10 11 10 10 10 9 9 9 9 9 9 10 10 10
1 2 1 1 2 2 2 2 3 4 4 4 4 4 3 3 2 3 3 4 4 3 2 3 4 5 6 6 7 9 9 9 9 10 9 9 9 9 9 10 10 10 10
2 2 1 1 2 2 2 2 2 3 3 4 5 4 3 3 3 3 3 2 3 3 3 4 2 4 5 5 6 7 6 7 9 9 10 9 9 9 9 9 9 9 9
2 1 1 1 1 1 1 2 2 2 2 2 3 4 3 3 4 4 4 3 3 3 4 3 2 2 3 4 6 5 6 7 7 8 8 8 8 9 9 9 8 8 8
1 1 1 1 1 1 1 1 2 2 2 3 3 3 3 3 3 3 4 4 4 4 4 3 3 3 3 3 5 6 6 7 7 7 8 8 8 8 8 8 8 7 7
2 2 2 2 2 2 1 1 2 3 3 3 3 3 4 3 2 3 3 3 3 3 5 4 3 3 3 3 3 4 4 4 5 6 7 7 7 7 7 7 7 7 7
2 2 2 2 2 2 2 2 3 3 3 4 4 4 4 3 3 3 3 3 4 4 4 6 4 3 3 3 3 3 3 4 4 5 7 7 7 7 7 7 6 6 6
2 1 1 2 2 2 2 3 3 4 4 5 5 5 5 4 4 4 4 4 4 4 4 4 4 3 3 2 2 3 3 3 4 4 5 6 6 7 7 7 7 6 6
2 2 2 2 2 2 3 3 3 4 5 5 5 5 5 5 5 5 4 5 4 3 3 3 4 3 3 2 2 3 3 3 3 3 3 3 4 6 6 7 7 7 7
3 3 2 2 2 3 3 3 3 4 5 5 5 5 5 6 6 5 4 4 4 3 3 3 4 3 3 2 3 3 3 3 3 3 3 3 3 3 4 6 7 8 8
3 2 2 2 2 3 4 4 3 3 4 4 5 5 5 6 6 6 6 5 5 5 4 4 4 5 5 4 3 3 3 3 3 2 2 3 3 4 4 4 6 8 8
2 2 2 2 3 4 5 4 4 3 4 4 4 4 4 4 4 4 5 6 6 7 7 5 6 6 6 5 4 4 4 4 4 3 2 4 3 4 4 5 7 8 9
2 2 3 2 3 4 5 5 4 3 4 4 4 4 4 5 4 4 4 4 5 5 6 6 6 7 6 5 5 5 4 4 3 3 2 3 4 4 4 5 6 8 8
2 2 2 2 3 4 5 4 3 2 3 4 4 3 3 4 5 4 4 5 5 5 5 5 6 6 6 5 4 3 3 2 3 3 2 3 3 3 4 4 5 6 7
3 2 2 2 3 4 5 4 3 2 3 3 3 3 4 4 5 3 3 4 5 5 4 3 3 4 3 3 4 5 5 4 3 3 3 3 2 2 2 2 3 3 3
Wind_Direction
209 227 238 235 231 233 228 222 224 222 234 242 223 214 221 228 231 227 228 228 226 223 225 222 215 215 220 222 222 221 218 218 216 217 219 221 222 225 226 225 224 223 226
203 210 223 229 231 224 223 220 225 225 229 220 220 222 227 230 228 227 228 230 231 229 226 223 220 220 222 225 226 227 226 225 224 223 224 225 226 226 227 228 228 229 227
206 206 210 218 228 221 211 227 235 216 215 208 213 222 228 230 227 232 233 230 232 232 230 227 225 225 226 227 227 229 229 226 226 225 226 227 228 229 230 231 229 231 227
209 202 203 218 224 192 169 180 182 161 192 208 231 241 236 230 234 239 236 233 228 228 234 234 231 230 230 228 229 230 229 229 229 228 229 229 231 231 230 232 232 232 231
213 204 207 225 197 153 146 197 159 172 188 252 259 249 246 241 242 242 234 233 231 228 231 234 235 234 234 235 235 232 230 228 231 234 234 235 236 235 233 235 235 235 233
213 209 217 222 185 157 184 194 176 189 207 234 282 299 282 260 246 243 241 234 232 232 231 232 235 236 238 242 242 238 236 231 233 237 240 242 241 239 236 234 236 238 234
211 202 216 207 183 187 204 194 168 151 59 95 57 342 327 306 259 247 241 239 243 244 243 237 236 237 242 245 243 242 241 239 238 237 238 239 239 240 241 237 235 236 235
210 205 198 200 195 198 208 197 176 165 170 138 133 55 344 340 325 275 246 239 246 244 248 250 241 238 238 243 247 246 244 243 244 240 240 239 238 240 243 241 238 236 239
213 203 200 196 195 199 216 219 196 187 201 200 164 162 176 264 308 292 255 250 250 242 247 247 245 245 242 243 249 253 251 247 248 249 246 243 241 240 241 241 239 236 237
201 203 200 199 204 205 215 222 204 193 189 208 211 204 208 198 232 298 297 275 269 260 259 257 253 250 247 247 249 250 255 256 252 254 254 250 245 243 242 242 240 238 238
79 156 187 192 214 215 218 219 208 197 194 201 203 198 211 222 215 236 286 301 293 276 267 257 252 248 244 242 248 251 253 254 254 256 257 255 251 248 246 244 242 239 239
337 337 224 220 225 227 228 227 218 206 206 207 208 202 201 205 213 226 254 279 286 289 277 261 250 244 241 242 246 253 251 249 250 253 253 253 254 251 246 245 243 241 241
286 287 268 239 235 236 233 228 222 218 208 209 214 216 215 220 213 221 247 274 286 291 281 262 244 242 247 247 249 252 249 245 246 249 250 249 250 250 247 246 243 241 242
249 267 247 242 247 242 233 213 223 230 217 220 230 226 228 232 222 219 213 238 283 290 277 266 261 241 242 240 243 245 252 246 245 246 245 246 246 246 245 245 243 239 237
245 240 234 246 263 245 222 194 211 228 229 233 238 236 240 245 234 232 221 214 227 269 286 271 265 258 239 237 242 244 247 249 250 249 244 245 246 245 240 241 241 240 239
258 234 233 243 260 267 257 220 237 237 227 241 236 236 246 254 248 243 233 227 222 231 260 274 265 275 260 253 251 246 249 252 248 245 245 245 247 247 239 234 234 237 238
235 238 237 237 247 258 264 247 250 239 237 251 256 246 251 251 253 254 244 237 237 227 251 273 273 280 259 261 273 262 262 256 255 246 244 242 243 243 236 233 230 229 232
231 229 233 236 246 255 254 247 256 252 242 249 253 249 257 256 256 259 253 253 246 234 239 265 277 278 269 267 270 270 275 273 267 258 246 245 241 233 227 226 224 224 227
246 237 230 245 252 250 249 252 253 258 252 252 253 252 257 255 259 263 259 255 250 247 236 251 267 266 272 273 282 280 278 280 278 270 256 245 238 233 231 228 227 224 225
251 256 246 248 254 250 248 250 256 263 260 258 257 254 256 252 252 257 259 255 252 251 250 252 263 266 267 270 257 268 284 282 281 282 270 259 251 245 240 236 233 229 229
249 246 248 261 260 251 255 259 256 263 260 260 261 260 257 256 257 256 261 254 241 245 253 256 262 266 263 261 261 260 270 286 287 270 278 279 269 260 255 247 236 233 235
240 237 256 272 281 277 279 266 262 269 265 259 262 264 263 259 263 268 267 256 238 238 243 248 257 257 261 255 258 253 262 279 284 278 271 284 269 264 260 253 242 236 239
235 247 261 269 280 288 292 283 276 269 268 261 262 265 277 279 269 268 275 271 259 253 240 238 248 253 253 243 238 247 247 250 258 271 271 275 278 275 271 261 247 242 242
229 248 260 267 279 295 306 302 295 276 274 271 269 264 264 272 269 267 274 275 270 264 253 246 243 252 254 242 228 233 240 249 271 270 242 261 277 277 283 271 262 250 247
238 247 261 265 271 291 305 298 293 283 284 286 281 278 274 275 285 285 272 272 280 285 284 267 257 256 258 248 220 210 219 232 269 269 233 242 265 279 277 274 269 258 251
239 248 267 266 267 287 306 310 304 277 279 289 291 291 295 291 290 288 267 261 269 282 295 300 292 288 273 246 212 213 215 223 251 261 236 225 249 263 273 272 286 283 264
Height
1541 1542 1542 1543 1544 1545 1546 1547 1548 1549 1549 1550 1551 1552 1553 1555 1556 1557 1558 1559 1560 1560 1561 1561 1561 1561 1562 1562 1563 1563 1564 1565 1565 1566 1566 1567 1567 1568 1569 1569 1570 1570 1571
1541 1541 1542 1542 1543 1544 1545 1546 1547 1547 1548 1549 1550 1551 1552 1553 1555 1556 1557 1558 1558 1559 1559 1559 1560 1560 1560 1561 1561 1562 1562 1563 1563 1564 1564 1565 1565 1566 1566 1567 1567 1568 1569
1541 1541 1542 1542 1543 1544 1544 1545 1545 1546 1547 1547 1548 1550 1551 1552 1553 1554 1555 1556 1557 1557 1558 1558 1558 1558 1559 1559 1559 1560 1561 1561 1561 1562 1562 1563 1563 1564 1564 1565 1565 1565 1566
1540 1541 1541 1542 1542 1543 1543 1544 1544 1544 1545 1546 1547 1548 1549 1550 1551 1552 1553 1554 1554 1555 1555 1556 1556 1556 1557 1557 1557 1558 1558 1559 1559 1560 1560 1560 1561 1561 1562 1562 1563 1563 1563
1540 1540 1541 1541 1542 1542 1543 1543 1544 1544 1544 1545 1546 1547 1548 1548 1549 1550 1551 1551 1552 1553 1553 1554 1554 1554 1555 1555 1555 1556 1556 1557 1557 1557 1557 1557 1558 1558 1559 1559 1559 1560 1560
1539 1540 1540 1541 1541 1542 1542 1543 1543 1543 1544 1544 1545 1546 1547 1547 1547 1548 1548 1549 1549 1550 1550 1551 1551 1552 1552 1553 1553 1553 1554 1554 1554 1554 1555 1554 1555 1555 1555 1556 1556 1557 1557
1538 1538 1539 1540 1540 1540 1541 1542 1542 1542 1543 1544 1544 1544 1545 1545 1546 1546 1547 1547 1547 1548 1548 1548 1549 1549 1549 1550 1551 1551 1551 1551 1551 1551 1551 1552 1552 1552 1552 1553 1553 1553 1554
1536 1537 1537 1538 1539 1540 1540 1540 1541 1541 1542 1543 1543 1543 1543 1544 1544 1545 1545 1545 1545 1545 1546 1546 1546 1546 1547 1547 1548 1548 1548 1548 1549 1548 1548 1548 1549 1549 1549 1549 1550 1550 1550
1534 1535 1536 1537 1537 1538 1538 1539 1539 1540 1541 1542 1542 1543 1543 1542 1542 1542 1542 1543 1543 1543 1543 1543 1543 1543 1543 1544 1544 1545 1545 1545 1545 1546 1546 1546 1546 1546 1546 1546 1546 1546 1546
1532 1533 1534 1535 1535 1536 1537 1537 1537 1537 1539 1539 1540 1541 1542 1541 1542 1540 1540 1540 1540 1540 1540 1540 1540 1540 1540 1540 1540 1541 1542 1542 1542 1542 1542 1542 1542 1542 1542 1542 1542 1543 1543
1531 1532 1532 1533 1533 1534 1535 1535 1535 1535 1536 1537 1538 1539 1539 1540 1540 1539 1537 1537 1537 1537 1536 1536 1536 1536 1536 1537 1537 1537 1538 1538 1539 1539 1539 1539 1539 1539 1539 1539 1539 1539 1539
1530 1530 1531 1531 1531 1532 1532 1533 1533 1533 1534 1535 1536 1537 1537 1537 1537 1537 1536 1534 1533 1533 1532 1532 1532 1532 1532 1533 1533 1534 1534 1534 1534 1535 1535 1535 1535 1535 1535 1535 1535 1535 1535
1528 1528 1529 1528 1529 1529 1530 1530 1531 1531 1532 1532 1533 1534 1534 1535 1535 1534 1533 1532 1530 1529 1529 1528 1529 1529 1529 1529 1529 1530 1530 1530 1530 1531 1531 1531 1531 1531 1531 1531 1531 1531 1531
1526 1527 1527 1527 1526 1527 1527 1527 1528 1529 1529 1530 1530 1531 1531 1532 1531 1531 1530 1529 1527 1526 1525 1525 1525 1526 1526 1526 1526 1526 1526 1526 1526 1526 1526 1526 1526 1526 1527 1527 1527 1527 1526
1525 1525 1525 1524 1524 1524 1524 1525 1525 1525 1526 1526 1527 1528 1528 1528 1528 1528 1527 1526 1526 1524 1522 1522 1522 1522 1522 1522 1522 1522 1522 1522 1522 1522 1522 1522 1522 1522 1522 1522 1522 1522 1522
1522 1522 1522 1522 1522 1522 1522 1522 1523 1523 1523 1524 1524 1524 1524 1524 1524 1524 1524 1523 1523 1522 1519 1518 1519 1519 1519 1519 1518 1518 1518 1518 1518 1517 1517 1517 1517 1517 1517 1516 1517 1517 1517
1520 1520 1520 1520 1519 1519 1519 1520 1520 1520 1520 1520 1520 1520 1520 1520 1520 1520 1520 1520 1519 1518 1516 1515 1515 1515 1515 1515 1514 1514 1514 1513 1513 1513 1512 1512 1512 1512 1512 1512 1512 1512 1511
1517 1517 1517 1517 1517 1516 1516 1517 1516 1516 1516 1516 1516 1516 1516 1516 1516 1516 1516 1515 1514 1514 1513 1511 1511 1511 1511 1511 1510 1510 1510 1509 1509 1508 1508 1507 1507 1507 1507 1507 1507 1507 1507
1514 1514 1514 1514 1514 1513 1513 1513 1513 1513 1512 1512 1512 1512 1512 1512 1512 1512 1511 1510 1510 1509 1509 1508 1507 1507 1507 1506 1506 1506 1505 1505 1504 1504 1503 1502 1502 1502 1502 1502 1502 1502 1502
1512 1512 1511 1511 1511 1510 1510 1509 1509 1509 1509 1509 1509 1508 1508 1508 1507 1507 1507 1506 1506 1505 1504 1504 1503 1502 1502 1502 1501 1501 1500 1500 1499 1499 1498 1498 1498 1498 1497 1497 1497 1497 1497
1509 1509 1509 1508 1508 1507 1506 1506 1505 1505 1504 1504 1504 1504 1504 1504 1504 1503 1503 1502 1502 1501 1500 1499 1499 1498 1498 1497 1497 1496 1496 1495 1495 1495 1494 1494 1494 1493 1493 1492 1492 1492 1492
1506 1506 1506 1505 1504 1504 1503 1503 1502 1501 1500 1500 1499 1499 1499 1499 1499 1499 1498 1498 1497 1497 1496 1495 1494 1494 1493 1493 1493 1492 1492 1491 1490 1491 1490 1489 1489 1489 1488 1488 1488 1488 1487
1503 1503 1503 1502 1501 1501 1500 1499 1498 1497 1496 1495 1495 1495 1495 1495 1495 1494 1494 1493 1492 1492 1492 1491 1490 1489 1489 1489 1489 1488 1488 1487 1486 1486 1486 1485 1485 1484 1484 1483 1483 1483 1483
1500 1500 1500 1499 1498 1498 1497 1496 1495 1494 1493 1492 1492 1491 1490 1490 1490 1489 1489 1488 1487 1487 1487 1486 1485 1485 1485 1485 1485 1485 1484 1483 1482 1482 1482 1481 1480 1480 1480 1479 1479 1479 1478
1497 1497 1497 1497 1496 1495 1494 1493 1492 1491 1490 1489 1488 1488 1487 1486 1486 1485 1484 1483 1482 1482 1482 1481 1481 1481 1480 1481 1481 1480 1480 1479 1478 1478 1478 1477 1476 1476 1476 1475 1475 1474 1474
1494 1495 1494 1494 1493 1492 1492 1490 1489 1488 1486 1485 1484 1483 1483 1482 1482 1481 1480 1479 1478 1477 1477 1477 1476 1476 1476 1475 1476 1476 1476 1475 1474 1473 1473 1474 1473 1473 1472 1471 1471 1470 1470